Other Public Products
Issued by NWS Grand Forks, ND

Home | Current Version | Previous Version | Text Only | Print | Product List | Glossary Off
Versions: 1 2 3 4 5 6 7 8 9 10 11 12 13 14 15 16 17 18 19 20 21 22 23 24 25 26 27 28 29 30 31 32 33 34 35 36 37 38 39 40 41 42 43 44 45 46 47 48 49 50

000
FPUS83 KFGF 261810
OPUFGF
PRAIRIE TO PINES WEATHER ROUNDUP
NATIONAL WEATHER SERVICE EASTERN NORTH DAKOTA/GRAND FORKS ND
100 PM CDT WED JUL 26 2017

 **SATELLITE DATA USED TO AUGMENT SKY COVER AT AUTOMATED STATIONS**
 *****  WEATHER ACROSS EASTERN NORTH DAKOTA  *****

CITY           SKY/WX    TMP DP  RH WIND       PRES   REMARKS
GRAND FORKS    PTSUNNY   78  62  57 N13       30.06S
6HR MIN TEMP:  63; 6HR MAX TEMP:  80;

GRAND FORKS AF FAIR      77  60  55 N8        30.08R
GRAND CITY NWS NOT AVBL
BUXTON           N/A     79  66  64 N8          N/A
DEVILS LAKE    FAIR      76  57  51 N10       30.13R
6HR MIN TEMP:  62; 6HR MAX TEMP:  77;

FARGO          FAIR      80  61  52 N13       30.06S
6HR MIN TEMP:  63; 6HR MAX TEMP:  80;

WAHPETON ARPT  FAIR      77  59  53 NW8G16    30.07F
$$

 *****  WEATHER ACROSS CENTRAL AND WESTERN NORTH DAKOTA  *****

CITY           SKY/WX    TMP DP  RH WIND       PRES   REMARKS
JAMESTOWN      FAIR      81  58  45 N13G20    30.10S
6HR MIN TEMP:  61; 6HR MAX TEMP:  81;

BISMARCK       FAIR      85  56  37 NE7       30.13S
6HR MIN TEMP:  61; 6HR MAX TEMP:  85;

MINOT          FAIR      81  54  39 N7        30.14F
6HR MIN TEMP:  60; 6HR MAX TEMP:  81;

MINOT AFB      FAIR      78  53  41 NW7       30.13S
6HR MIN TEMP:  53; 6HR MAX TEMP:  78;

GARRISON         N/A     81  54  39 VRB7      30.14S
6HR MIN TEMP:  55; 6HR MAX TEMP:  82;

WILLISTON      FAIR      86  49  27 CALM      30.14F
6HR MIN TEMP:  56; 6HR MAX TEMP:  86;

DICKINSON      FAIR      83  51  33 VRB5      30.14S
6HR MIN TEMP:  55; 6HR MAX TEMP:  84;

HETTINGER      FAIR      85  47  26 CALM      30.17S
6HR MIN TEMP:  61; 6HR MAX TEMP:  85;

$$

 *****  OTHER OBSERVATIONS NORTHEAST NORTH DAKOTA  *****

CITY           SKY/WX    TMP DP  RH WIND       PRES   REMARKS
WALHALLA       NOT AVBL
LANGDON        FAIR      77  61  57 N13G20    30.12R
CAVALIER       FAIR      77  63  61 NW13      30.06F
GRAFTON        FAIR      77  61  57 N10G17    30.09R
CANDO          NOT AVBL
FORT TOTTEN      N/A     79  61  53 N5        29.95S
ROLLA            N/A     73  59  60 N7G16     30.15S
RUGBY          NOT AVBL
 ***** THE ABOVE OBSERVATIONS ARE NON NWS ARE NOT QUALITY
        CONTROLLED AND MAY MIS-REPORT RAIN FOR SNOW...
$$

 *****  OTHER OBSERVATIONS SOUTHEAST NORTH DAKOTA *****

CITY           SKY/WX    TMP DP  RH WIND       PRES   REMARKS
COOPERSTOWN    FAIR      77  61  57 N15       30.11R
VALLEY CITY    FAIR      79  59  50 N10G20    30.11S
OAKES          NOT AVBL
GWINNER        CLEAR     81  61  50 N8G16     30.09S
SHEYENNE NWR     N/A     80  59  48 N8        29.95S
BUFFALO          N/A     77  55  45 E7          N/A
WYNDMERE       NOT AVBL
 ***** THE ABOVE OBSERVATIONS ARE NON NWS ARE NOT QUALITY
       CONTROLLED AND MAY MIS-REPORT RAIN FOR SNOW...
$$

  *****  WEATHER ACROSS NORTHERN MINNESOTA  *****

CITY           SKY/WX    TMP DP  RH WIND       PRES   REMARKS
FLAG ISLAND    FAIR      75  55  50 N14       30.00F
WARROAD        FAIR      75  63  64 NW9       30.03S
ROSEAU         FAIR      77  63  61 NW6G18    30.03S
HALLOCK        NOT AVBL
THF RVR FALLS  PTSUNNY   76  60  57 N12       30.06S
6HR MIN TEMP:  65; 6HR MAX TEMP:  76;

HALSTAD        NOT AVBL
FOSSTON        PTSUNNY   75  61  60 NW8       30.07R
BAUDETTE       FAIR      76  61  59 NW12      30.02R
6HR MIN TEMP:  60; 6HR MAX TEMP:  77;

WASKISH        CLOUDY    79  61  53 NW8       30.02S
CROOKSTON      FAIR      75  63  64 N12G20    30.07S
$$
  *****  WEATHER ACROSS CENTRAL AND WEST MINNESOTA  *****

CITY           SKY/WX    TMP DP  RH WIND       PRES   REMARKS
BEMIDJI        PTSUNNY   76  59  55 NW10G16   30.04S
PARK RAPIDS    FAIR      79  58  48 N7        30.04F
6HR MIN TEMP:  60; 6HR MAX TEMP:  79;

WADENA         FAIR      79  61  53 NW7       30.05F
DETROIT LAKES  FAIR      73  61  64 NW12      30.07F
MOORHEAD       FAIR      79  61  53 NW8       30.06F
FERGUS FALLS   FAIR      75  61  60 NW13      30.06S
ELBOW LAKE     FAIR      76  60  58 N5        30.07F HAZE
6HR MIN TEMP:  65; 6HR MAX TEMP:  77;

MORRIS MN      FAIR      81  61  50 NW9       30.06S
STAPLES        PTSUNNY   79  57  47 W7        30.05S
WHEATON        FAIR      79  59  50 NW7       30.08F
$$
  *****  WEATHER ELSEWHERE ACROSS MINNESOTA  *****

CITY           SKY/WX    TMP DP  RH WIND       PRES   REMARKS
DULUTH         FAIR      76  61  59 NW7G17    30.00S
6HR MIN TEMP:  64; 6HR MAX TEMP:  78;

INTRNTL FALLS  PTSUNNY   76  59  55 NW14      29.98S
6HR MIN TEMP:  61; 6HR MAX TEMP:  78;

ELY            FAIR      75  55  50 W10G16    29.99S
CLOQUET        FAIR      79  57  47 SW8       30.01S
BRAINERD       FAIR      78  59  51 NW6       30.03F
6HR MIN TEMP:  66; 6HR MAX TEMP:  78;

HIBBING        PTSUNNY   74  57  55 W6        30.01S
6HR MIN TEMP:  60; 6HR MAX TEMP:  76;

ALEXANDRIA     FAIR      77  61  57 W7        30.08F
6HR MIN TEMP:  68; 6HR MAX TEMP:  78;

SAINT CLOUD    FAIR      80  61  52 W8        30.03F
6HR MIN TEMP:  69; 6HR MAX TEMP:  80;

MINNEAPOLIS    PTSUNNY   78  70  76 NW5       30.00F
6HR MIN TEMP:  72; 6HR MAX TEMP:  78; 6HR PCP:  0.01;

$$

  *****  WEATHER ACROSS SOUTH DAKOTA  *****

CITY           SKY/WX    TMP DP  RH WIND       PRES   REMARKS
SIOUX FALLS    PTSUNNY   80  70  71 NE14      30.03F
6HR MIN TEMP:  71; 6HR MAX TEMP:  81;

BROOKINGS      FAIR      77  60  55 NE13      30.07S
WATERTOWN      FAIR      77  59  53 NE13      30.09R
6HR MIN TEMP:  68; 6HR MAX TEMP:  78;

HURON          FAIR      81  65  58 E10       30.06F
6HR MIN TEMP:  71; 6HR MAX TEMP:  81;

SISSETON         N/A     82  62  50 N10       30.07S
ABERDEEN       FAIR      82  61  48 N10       30.10S
6HR MIN TEMP:  67; 6HR MAX TEMP:  82;

MITCHELL       FAIR      83  70  64 NE13      30.05S
PIERRE         PTSUNNY   84  54  35 E15G23    30.09R
6HR MIN TEMP:  71; 6HR MAX TEMP:  86;

MOBRIDGE       FAIR      84  61  45 N8        30.10S
RAPID CITY     CLOUDY    77  49  37 NE8       30.20S
6HR MIN TEMP:  68; 6HR MAX TEMP:  78;

$$

  *****  SOME WEATHER IN NEARBY STATES *****

CITY           SKY/WX    TMP DP  RH WIND       PRES   REMARKS
GLASGOW MT     FAIR      84  44  24 SE14      30.11S
6HR MIN TEMP:  58; 6HR MAX TEMP:  84;

GREAT FALLS MT FAIR      81  43  26 VRB6      30.11F
6HR MIN TEMP:  52; 6HR MAX TEMP:  81;

CHEYENNE WY    CLOUDY    64  58  80 N9        30.32S
6HR MIN TEMP:  60; 6HR MAX TEMP:  64; 6HR PCP:  0.12;

SCOTTSBLUFF NE FAIR      79  58  48 N9        30.19F
6HR MIN TEMP:  66; 6HR MAX TEMP:  79; 6HR PCP:  0.01;

OMAHA NE       CLOUDY    77  71  82 S7        29.98R
6HR MIN TEMP:  74; 6HR MAX TEMP:  77; 6HR PCP:  0.10;

DES MOINES IA  CLOUDY    79  73  82 E5        30.00S
6HR MIN TEMP:  75; 6HR MAX TEMP:  79; 6HR PCP:  0.05;

DAVENPORT IA   FAIR      82  75  79 S5        30.04F
6HR MIN TEMP:  72; 6HR MAX TEMP:  82;

CHICAGO IL     CLOUDY    84  69  60 SW9       30.03F
6HR MIN TEMP:  68; 6HR MAX TEMP:  84;

EAU CLAIRE WI  CLOUDY    72  71  97 SW6       30.00S
6HR MIN TEMP:  70; 6HR MAX TEMP:  72; 6HR PCP:  0.10;

LA CROSSE WI   CLOUDY    80  72  76 S10       30.01R
6HR MIN TEMP:  75; 6HR MAX TEMP:  81; 6HR PCP: TRACE;

$$

  *****  SOME NATIONAL WEATHER *****

CITY           SKY/WX    TMP DP  RH WIND       PRES   REMARKS
LA GUARDIA NY  FAIR      77  59  53 S10       30.20F



USA.gov is the U.S. government's official web portal to all federal, state and local government web resources and services.